Find Starlink 11444

NORAD ID: 62409 Int'l Des: 2024-249 Owner: SPXS Country: US Constellation: starlink operational
別名: STARLINK-11444 [DTC] celestrak
LEOCIRCULAR

現在のビュー

3D地球を読み込み中...

About Starlink 11444

Starlink 11444 (NORAD 62409) is a starlink constellation satellite (v2 mini d2c) launched Dec 23, 2024 by SPXS of US. It operates in LEO, CIRCULAR orbit with a mass of 960.00 kg.

次回通過

Passes for default location (London). Set your location on the main map for personalized predictions.

高度履歴

Loading altitude history...

軌道要素

1 62409U 24249A 26262.78697153 .00186851 00000-0 14233-2 0 9990
2 62409 42.9998 78.0153 0001939 280.1762 79.8887 15.70904894100001
Epoch: Sep 19, 2026 • Age: 34 hours

現在のステータス

高度 357.8 km
遠地点 / 近地点 N/A
速度 7.70 km/s
衛星直下点 36.56°N, 122.74°E
打ち上げ日 Dec 23, 2024
運用期間 1.7 years
タイプ internet

技術仕様

分類 Payload
質量 960.00 kg
乾燥質量 910.00 kg
長さ 0.30 m
スパン 29.00 m
形状 ? Box + pan
製造者 SPXS
バスタイプ Starlink V2MD
フェーズステータス In Orbit
所有者/国 SPXS/US

Most Searched